Location: *
(42.0500°S, 170.6500°W)
Time: 19:23:00
(UTC+00:00)

Daily predictions for brighter satellites

Satellite Brightness Start Highest point End
(mag) Time Altitude Azimuth Time Altitude Azimuth Time Altitude Azimuth
Cosmos 2227 Rocket 4.0 12:18:43 23° ESE 12:18:43 23° ESE 12:21:51 10° SE
Cosmos 2297 Rocket 3.8 12:23:49 27° ESE 12:23:49 27° ESE 12:27:16 10° SE
Lacrosse 5 3.6 12:26:29 31° SSE 12:26:29 31° SSE 12:29:18 10° SE
Cosmos 2333 Rocket 3.8 12:23:24 10° SSW 12:25:59 28° SSW 12:25:59 28° SSW
Resurs 1-4 Rocket 3.8 12:32:27 27° SSW 12:32:27 27° SSW 12:34:52 10° SSW
ATLAS CENTAUR R/B 4.5 12:34:54 10° SE 12:34:54 10° SE 12:34:55 10° SE
Gbstr 26 Del rocket 4.4 12:40:25 62° ESE 12:40:25 62° ESE 12:45:38 10° ESE
Meteor 1-11 Rocket 4.4 12:41:17 54° SSE 12:41:17 54° SSE 12:45:53 10° S
ARIANE 5 R/B 3.6 12:46:21 44° SSE 12:46:21 44° SSE 12:50:13 10° S
Cosmos 2219 Rocket 4.0 12:46:32 10° SSW 12:48:33 22° SW 12:48:33 22° SW
ADEOS II 2.8 12:57:59 49° S 12:57:59 49° S 13:01:56 10° S
Cosmos 2219 3.6 13:02:39 58° S 13:02:39 58° S 13:07:16 10° SSE
Cosmos 2237 Rocket 2.8 12:57:01 10° SSW 13:01:24 53° S 13:01:24 53° S
CZ-2D R/B 4.1 13:12:34 18° SW 13:12:34 18° SW 13:14:20 10° SW
Cosmos 407 Rocket 4.2 13:05:14 10° S 13:10:30 50° ESE 13:10:49 50° ESE
Cosmos 1745 Rocket 4.0 13:06:06 10° S 13:12:21 76° E 13:12:26 76° E
S3M 3.9 13:17:45 89° ENE 13:17:46 89° E 13:24:10 10° S
Cosmos 1980 4.4 13:14:18 10° SSW 13:18:11 44° SW 13:18:11 44° SW
IDEFIX/ARIANE 42P 4.2 13:23:15 12° NE 13:27:24 32° ESE 13:32:02 10° S
Cosmos 1386 Rocket 4.3 13:29:44 10° S 13:35:55 80° W 13:36:14 77° NW
Cosmos 1975 Rocket 4.3 13:35:20 10° SSW 13:38:03 36° SSW 13:38:03 36° SSW
Lacrosse 5 rocket 4.5 13:37:40 10° SSW 13:39:56 13° S 13:42:10 10° SE
SL-24 DEB 4.4 13:38:15 10° S 13:42:45 75° SE 13:42:45 75° SE
Meteor 2-21 4.4 13:37:43 10° SSW 13:43:55 67° W 13:44:07 67° WNW
SL-16 R/B 3.1 13:40:24 10° SSE 13:46:31 53° E 13:49:10 32° NNE
Cosmos 2315 Rocket 4.2 13:45:40 45° NNE 13:47:44 73° E 13:54:09 10° SSE
ERS-2 4.3 13:46:29 10° S 13:47:58 20° SSW 13:47:58 20° SSW
Cosmos 1140 Rocket 3.5 13:47:24 10° SSW 13:52:45 79° ESE 13:54:36 42° NNE
Cosmos 614 Rocket 4.1 13:49:10 10° SSW 13:53:43 61° WSW 13:53:43 61° WSW
SL-16 R/B 2.3 13:50:29 10° SSW 13:56:14 77° ESE 14:01:54 10° NNE
H-2A R/B 3.2 13:53:29 10° SSE 13:57:21 36° E 13:58:22 31° NE
Cosmos 2227 Rocket 2.6 14:00:32 45° WSW 14:00:59 46° WSW 14:06:29 10° SSE
Iridium 2 4.2 14:01:15 57° E 14:01:15 57° E 14:04:55 10° SSE
Cosmos 1743 4.2 14:03:10 29° SSW 14:03:10 29° SSW 14:05:26 10° S
Cosmos 2056 Rocket 3.6 14:02:35 58° W 14:02:51 59° WSW 14:08:09 10° SSE
CZ-2C R/B 4.4 14:04:57 26° SW 14:04:57 26° SW 14:06:52 10° SSW
SL-08 ROCKET BODY 4.4 13:59:12 10° SSW 14:05:01 56° W 14:05:34 54° WNW
UNK 3.7 14:01:00 10° SSE 14:05:46 83° E 14:06:29 65° N
Cosmos 1025 Rocket 3.6 14:01:33 10° S 14:05:55 56° E 14:07:47 31° NE
Cosmos 2297 Rocket 2.8 14:05:38 39° WSW 14:06:13 40° WSW 14:11:36 10° S
Cosmos 2082 3.7 14:06:19 56° WNW 14:07:14 65° WSW 14:12:56 10° SSE
Lacrosse 5 4.0 14:05:39 14° SW 14:08:13 19° SSW 14:11:55 10° SSE
Cosmos 1624 Rocket 4.3 14:08:11 50° W 14:08:36 51° WSW 14:13:51 10° S
ATLAS CENTAUR R/B 3.4 14:11:05 15° SSW 14:11:05 15° SSW 14:12:47 10° S
MSX 4.4 14:05:15 10° NNE 14:10:54 58° ESE 14:16:37 10° S
Okean 2 Rocket 3.3 14:11:44 54° WSW 14:11:44 54° WSW 14:15:50 10° S
Cosmos 1818 3.6 14:11:20 55° WNW 14:12:16 66° SW 14:17:40 10° SSE
Unknown 3.5 14:13:23 72° E 14:13:23 72° E 14:17:02 10° SE
Cosmos 1300 Rocket 3.4 14:14:30 73° WNW 14:14:48 77° W 14:19:16 10° S
ATLAS CENTAUR R/B 3.7 14:17:56 12° E 14:17:56 12° E 14:18:14 10° E
CBERS 1 LM4 rocket 4.3 14:16:32 59° WNW 14:16:52 61° WNW 14:21:42 10° SSW
Unknown 4.4 14:18:30 38° NNE 14:18:52 39° NE 14:22:43 10° ESE
ADEOS 3.5 14:17:05 25° N 14:20:12 82° WNW 14:25:33 10° SSW
Okean 1 Rocket 3.8 14:20:04 24° NNE 14:22:26 51° E 14:26:44 10° SSE
H-2A R/B 3.1 14:19:15 10° NNE 14:23:45 63° ESE 14:28:16 10° S
ARIANE 5 R/B 4.5 14:26:41 15° WSW 14:26:41 15° WSW 14:28:07 10° SW
Meteor 2-9 Rocket 4.2 14:23:38 37° NNW 14:26:03 76° W 14:32:02 10° S
Unknown 3.3 14:26:14 71° NNW 14:26:34 80° NE 14:30:33 10° SE
CZ-4C R/B 4.1 14:23:54 10° SSE 14:26:56 36° E 14:27:59 28° NE
SL-4 R/B 4.1 14:23:44 10° SW 14:27:11 25° SSE 14:30:50 10° ESE
Cosmos 1707 4.1 14:25:35 10° S 14:29:19 39° ESE 14:33:01 10° NNE
Cosmos 1709 Rocket 4.1 14:24:25 10° SSW 14:30:21 50° W 14:32:42 33° NW
Meteor 1-21 4.1 14:25:27 10° SSW 14:31:10 71° W 14:35:20 19° N
Cosmos 1536 Rocket 3.5 14:26:55 10° SSW 14:31:23 66° W 14:32:38 44° NNW
Cosmos 1842 3.4 14:29:52 10° SSW 14:33:44 51° W 14:33:44 51° W
Atlas Centaur 2 3.8 14:37:46 11° NNE 14:37:46 11° NNE 14:38:15 10° NNE
Cosmos 2184 Rocket 4.2 14:30:18 10° S 14:36:34 71° E 14:42:43 10° NNE
ADEOS II 4.2 14:38:55 12° WSW 14:38:55 12° WSW 14:39:38 10° WSW
Meteor 1-4 Rocket 3.7 14:34:43 10° S 14:38:25 45° ESE 14:42:00 10° NNE
Unknown 4.5 14:40:18 30° N 14:41:47 43° NE 14:45:47 10° ESE
Cosmos 676 Rocket 4.2 14:36:52 10° SSW 14:42:03 49° WNW 14:45:59 17° N
Starlink (trailer) 4.4 14:41:51 30° N 14:43:23 44° NE 14:47:25 10° ESE
Meteor 1-12 Rocket 4.3 14:40:46 24° NNW 14:44:30 71° W 14:50:32 10° S
Unknown 4.3 14:43:27 30° N 14:45:03 46° NE 14:49:06 10° ESE
Cosmos 2237 Rocket 4.3 14:42:53 10° WSW 14:43:10 11° WSW 14:43:10 11° WSW
Unknown 4.3 14:45:04 30° N 14:46:43 47° NE 14:50:47 10° ESE
PAYLOAD A 4.1 14:43:33 10° NNE 14:48:56 90° ESE 14:54:29 10° SSW
SAR-Lupe-4 3.7 14:47:33 10° S 14:51:09 55° WSW 14:52:10 40° NW
ATLAS 5 CENTAUR R/B 4.1 14:45:12 10° N 14:51:22 33° ENE 14:57:14 10° SE
CZ-4B R/B 3.6 14:48:16 10° NNE 14:51:47 49° ESE 14:55:24 10° S
Unknown 4.1 14:50:51 29° NNW 14:52:42 54° NE 14:56:49 10° ESE
Unknown 4.1 14:51:26 29° NNW 14:53:19 54° NE 14:57:26 10° ESE
Cosmos 389 Rocket 2.3 14:49:55 10° SSW 14:53:31 73° W 14:56:05 17° N
Cosmos 1441 Rocket 4.3 14:53:27 27° W 14:53:47 28° WSW 14:57:17 10° SSW
Unknown 4.1 14:52:00 29° NNW 14:53:55 54° NE 14:58:01 10° ESE
Cosmos 1452 Rocket 3.7 14:51:53 28° NW 14:54:33 56° WSW 14:59:50 10° SSE
PSLV R/B 4.0 14:54:05 31° NW 14:55:21 38° W 14:59:24 10° SSW
Unknown 4.0 14:54:53 28° NNW 14:56:53 58° NE 15:01:00 10° ESE
Unknown 4.0 14:56:16 27° NNW 14:58:21 60° NE 15:02:30 10° ESE
Unknown 3.8 14:57:59 27° NNW 15:00:06 65° NE 15:04:17 10° ESE
Meteor 2-15 4.4 14:55:10 14° NNW 15:00:26 70° W 15:06:38 10° S
Cosmos 1544 3.8 14:59:52 31° WNW 15:00:33 34° WSW 15:03:58 10° S
Shenzhou-11 Module 2.4 15:02:08 37° NNW 15:02:39 43° NNE 15:05:20 10° E
OAO 2 Rocket 4.3 15:01:04 22° NNW 15:03:24 32° N 15:07:51 10° ENE
Unknown 3.8 15:01:10 26° NW 15:03:25 69° NE 15:07:37 10° ESE
Unknown 3.8 15:01:23 26° NW 15:03:38 67° NE 15:07:51 10° ESE
COSMOS 2441 4.4 15:00:05 10° N 15:04:52 57° W 15:09:41 10° SSW
Unknown 3.8 15:02:39 25° NW 15:04:58 68° NE 15:09:10 10° ESE
IDEFIX/ARIANE 42P 3.3 15:04:03 19° NW 15:06:56 32° W 15:11:38 10° SSW
Cosmos 1455 Rocket 4.4 15:02:54 10° NNE 15:06:59 40° E 15:11:09 10° SSE
Cosmos 2074 Rocket 4.0 15:01:39 10° SSW 15:07:58 64° W 15:14:11 10° N
Unknown 3.8 15:05:42 24° NW 15:08:10 70° NE 15:12:22 10° ESE
Okean O Rocket 4.1 15:05:53 10° ENE 15:09:28 25° ESE 15:13:06 10° SSE
Unknown 3.7 15:09:01 23° NW 15:11:35 77° NE 15:15:48 10° SE
Cosmos 405 Rocket 2.7 15:09:35 18° NNW 15:12:22 61° W 15:16:12 10° S
Meteor 1-31 Rocket 2.7 15:08:47 10° NNE 15:12:40 86° W 15:16:38 10° SSW
Unknown 3.7 15:10:38 22° NW 15:13:15 79° NE 15:17:29 10° SE
Cosmos 2263 Rocket 2.2 15:09:05 11° NNW 15:14:34 84° ENE 15:20:16 10° SSE
Meteor 2-15 Rocket 4.4 15:08:39 10° NNW 15:14:42 67° W 15:20:53 10° S
Cosmos 1689 Rocket 4.2 15:12:04 10° SE 15:14:51 28° E 15:17:34 10° NNE
Unknown 3.7 15:12:14 22° NW 15:14:55 82° NE 15:19:09 10° SE
USA 32 4.1 15:09:54 10° SSW 15:15:09 62° W 15:20:19 10° N
Meteor 1-28 Rocket 4.5 15:11:31 10° SSE 15:15:12 42° E 15:18:50 10° N
CZ-4B R/B 2.1 15:11:53 10° SSE 15:15:26 57° E 15:18:54 10° N
Unknown 3.6 15:13:50 21° NW 15:16:35 84° NE 15:20:49 10° SE
SeaSat 1 2.6 15:13:45 10° NNE 15:18:41 79° ESE 15:23:42 10° SSW
Cosmos 1110 Rocket 4.1 15:13:44 10° NNW 15:18:56 83° ENE 15:24:13 10° SSE
Unknown 3.6 15:17:03 20° NW 15:19:55 89° ENE 15:24:10 10° SE
Cosmos 1850 Rocket 4.1 15:15:13 10° SSW 15:20:28 57° WNW 15:25:38 10° N
Lacrosse 5 rocket 3.7 15:16:39 10° SSW 15:20:35 26° SSE 15:24:22 10° E
Unknown 3.6 15:18:41 19° NW 15:21:37 87° SW 15:25:52 10° SE
Unknown 3.6 15:20:13 19° NW 15:23:13 86° SW 15:27:28 10° SE
Okean 1-7 Rocket 3.7 15:19:40 10° S 15:24:10 80° E 15:28:35 10° N
Unknown 3.6 15:21:46 18° NW 15:24:51 86° SW 15:29:06 10° SE
Unknown 3.6 15:22:19 18° NW 15:25:26 83° SW 15:29:40 10° SE
Cosmos 371 Rocket 3.6 15:22:41 10° N 15:27:33 71° ENE 15:32:30 10° SSE
Unknown 3.6 15:24:46 17° NW 15:27:59 85° SW 15:32:15 10° SE
Cosmos 1484 Rocket 3.5 15:25:16 10° NNE 15:29:14 62° ESE 15:33:18 10° S
SL-16 R/B 3.6 15:24:39 10° S 15:29:45 27° WSW 15:34:16 12° WNW
Cosmos 1437 Rocket 2.8 15:26:05 10° S 15:30:11 86° ESE 15:34:09 10° N
CZ-4C R/B 3.7 15:25:29 10° SSW 15:30:48 36° SE 15:35:24 10° ENE
SL-08 R/B 3.9 15:26:45 10° S 15:31:21 40° WSW 15:35:49 10° NW
Unknown 3.6 15:28:01 16° WNW 15:31:23 81° SW 15:35:37 10° SE
CZ-2C R/B 2.7 15:26:47 10° N 15:31:27 44° W 15:36:03 10° SSW
Unknown 3.7 15:29:34 15° WNW 15:33:00 79° SW 15:37:15 10° SE
H-2A R/B 3.5 15:30:03 10° SSW 15:33:06 20° WSW 15:35:28 13° WNW
Unknown 3.7 15:31:27 15° WNW 15:34:56 70° SW 15:39:09 10° SE
Unknown 3.7 15:32:46 14° WNW 15:36:19 74° SW 15:40:34 10° SE
Meteor 1-15 Rocket 4.3 15:31:55 10° NNW 15:37:26 61° WSW 15:43:04 10° S
Unknown 3.7 15:34:22 14° WNW 15:37:59 72° SW 15:42:13 10° SE
SL-16 R/B 3.7 15:36:31 10° WSW 15:39:35 15° W 15:42:38 10° NW
Cosmos 1603 3.8 15:34:18 10° SSW 15:39:50 54° WNW 15:45:17 10° N
SJ-12 4.4 15:37:00 10° NNE 15:41:10 68° ESE 15:45:22 10° S
Unknown 3.8 15:37:36 13° WNW 15:41:22 68° SW 15:45:35 10° SE
OAO 3 Rocket 4.5 15:37:24 10° NW 15:41:26 28° NNE 15:45:28 10° ENE
CZ-4B DEB 4.3 15:37:14 10° NNE 15:42:44 88° WNW 15:48:21 10° SSW
Unknown 3.8 15:39:12 12° WNW 15:43:02 66° SW 15:47:15 10° SE
USA 215 3.3 15:36:46 10° NE 15:43:21 85° NW 15:50:00 10° SW
Nadezhda 1 Rocket 4.3 15:37:36 10° NNW 15:43:39 48° WSW 15:49:42 10° S
Unknown 3.8 15:40:48 12° WNW 15:44:42 65° SW 15:48:55 10° SE
Unknown 3.9 15:42:24 11° WNW 15:46:22 63° SSW 15:50:34 10° SE
Landsat 5 4.4 15:44:23 10° S 15:48:00 30° WSW 15:51:41 10° NW
Unknown 3.9 15:45:37 10° WNW 15:49:44 59° SSW 15:53:55 10° SE
Unknown 4.0 15:46:52 10° WNW 15:51:00 56° SSW 15:55:10 10° SE
Unknown 4.1 15:47:30 10° WNW 15:51:37 52° SSW 15:55:45 10° SE
PAYLOAD B 4.2 15:46:18 10° NNE 15:51:50 83° WNW 15:57:27 10° SSW
Lacrosse 5 4.3 15:49:56 10° SSW 15:53:02 16° S 15:56:07 10° SE
Unknown 4.1 15:49:11 10° WNW 15:53:17 51° SSW 15:57:25 10° SE
Unknown 4.1 15:52:16 10° WNW 15:56:23 53° SSW 16:00:32 10° SE
Unknown 4.5 15:54:13 10° W 15:58:05 39° SSW 16:01:57 10° SE
Unknown 4.2 15:54:18 10° WNW 15:58:19 46° SSW 16:02:22 10° SE
Cosmos 1331 Rocket 4.3 15:53:31 10° NW 15:58:36 50° WSW 16:03:48 10° S
H-2A R/B 4.4 15:57:21 10° WNW 15:59:36 13° W 16:01:50 10° WSW
Unknown 4.1 15:55:37 10° WNW 15:59:43 51° SSW 16:03:51 10° SE
CZ-4B R/B 3.3 15:55:10 10° NNE 16:00:36 88° ESE 16:06:14 10° SSW
